Regional Weather Roundup
Issued by NWS

Home | Current Version | Previous Version | Graphics & Text | Print | Product List | Glossary On
Versions: 1 2 3 4 5 6 7 8 9 10 11 12 13 14 15 16 17 18 19 20 21 22 23 24 25 26 27 28 29 30 31 32 33 34 35 36 37 38 39 40 41 42 43 44 45 46 47 48 49 50
000
ASUS43 KIND 211109
RWRIN

WEATHER ROUNDUP FOR INDIANA
NATIONAL WEATHER SERVICE INDIANAPOLIS IN
700 AM EDT SAT OCT 21 2017

NOTE: "FAIR" INDICATES FEW OR NO CLOUDS BELOW 12,000 FEET WITH NO
SIGNIFICANT WEATHER AND/OR OBSTRUCTIONS TO VISIBILITY.

* - STATION DOES NOT REPORT WEATHER SUCH AS PRECIPITATION OR FOG.

+ - STATION NOT QUALITY CONTROLLED BY THE NATIONAL WEATHER SERVICE.
    USE DATA WITH CAUTION...ESPECIALLY DEWPOINT AND RELATIVE
    HUMIDITY OBSERVATIONS.

INZ001>003-010>013-019-020-211200-
NORTHWEST INDIANA

CITY           SKY/WX    TMP DP  RH WIND       PRES   REMARKS
GARY /AIRPORT/ MOCLDY    63  46  55 S14       30.09S
KNOX *+        CLOUDY    55  48  76 S7        30.13R
LA PORTE +     CLOUDY    54  49  84 S3        30.13S
MICHIGAN CITY+ CLOUDY    59  46  63 S7        30.12R
MONTICELLO +   PTCLDY    55  51  88 CALM      30.14R
RENSSELAER +   PTCLDY    55  45  67 S7        30.13R
VALPARAISO     MOCLDY    57  49  74 S7        30.12S

$$

LMZ046-743>745-211200-
SOUTHERN LAKE MICHIGAN

STATION/POSITION TIME  TEMP    WIND        PRES    WAVE
                       AIR SEA DIR/SP/G            HT
                 (UTC) (F)     (DEG/KT/KT) (MB)    (FT)
BURNS HARBOR     1040   62     180/ 13/ 18 1019.3R
MICHIGAN CITY    1040   61     160/ 13/ 15   N/A
5NW MICH CITY    1100   60 58  180/ 10/ 12   N/A     1

$$

INZ004-005-014>016-021>024-211200-
NORTH CENTRAL INDIANA

CITY           SKY/WX    TMP DP  RH WIND       PRES   REMARKS
GOSHEN         CLOUDY    56  47  71 SE8       30.15R
LOGANSPORT +   MOCLDY    50  46  87 S7        30.16R
PERU/GRISSOM   MOCLDY    52  50  91 S7        30.16R
SOUTH BEND     CLOUDY    57  50  77 SE6       30.14R
WARSAW +       CLOUDY    55  50  82 CALM      30.16R

$$

INZ006>009-017-018-025>027-211200-
NORTHEAST INDIANA

CITY           SKY/WX    TMP DP  RH WIND       PRES   REMARKS
AUBURN +       PTCLDY    50  46  87 CALM      30.20R
FORT WAYNE     MOCLDY    49  46  90 CALM      30.19R
HUNTINGTON +   CLOUDY    55  51  87 CALM      30.17S
KENDALLVILLE + PTCLDY    54  50  87 S5        30.19R

$$

INZ028-029-035-036-043>045-051>053-211200-
WEST CENTRAL INDIANA

CITY           SKY/WX    TMP DP  RH WIND       PRES   REMARKS
GREENCASTLE +  CLOUDY    50  46  87 CALM      30.17R
LAFAYETTE      PTCLDY    54  49  83 S5        30.14R
TERRE HAUTE    PTCLDY    50  46  86 CALM      30.15R

$$

INZ030>032-037>040-046>048-054>057-064-065-211200-
CENTRAL INDIANA

CITY           SKY/WX    TMP DP  RH WIND       PRES   REMARKS
CP ATTERBURY + MOCLDY    46  46 100 CALM      30.19R FOG
COLUMBUS       CLEAR     48  46  93 CALM      30.18
FRANKFORT +    CLOUDY    52  49  90 S3        30.17R
GREENWOOD *+   CLOUDY    58  53  81 S7        30.18R
INDIANAPOLIS   PTCLDY    55  50  83 SE7       30.17R
-EAGLE CREEK   PTCLDY    53  48  83 CALM      30.16R
KOKOMO +       PTCLDY    52  49  89 S5        30.18R
MT COMFORT *+  MOCLDY    55  54  94 S5        30.18R
SHELBYVILLE    PTCLDY    54  48  80 SE5       30.18R
ZIONSVILLE +   MOCLDY    50  49  95 CALM      30.18R

$$

INZ033-034-041-042-049-050-058-059-211200-
EAST CENTRAL INDIANA

CITY           SKY/WX    TMP DP  RH WIND       PRES   REMARKS
MUNCIE         CLOUDY    59  50  72 S3        30.18R
RICHMOND +     MOCLDY    52  52 100 SE8       30.22R

$$

INZ060-061-067>069-081>083-085>088-211200-
SOUTHWEST INDIANA

CITY           SKY/WX    TMP DP  RH WIND       PRES   REMARKS
EVANSVILLE     MOCLDY    51  48  89 CALM      30.16R
WASHINGTON +   PTCLDY    49  47  94 S6        30.16R

$$

INZ062-063-066-070>080-084-089>092-211200-
SOUTH CENTRAL AND SOUTHEAST INDIANA

CITY           SKY/WX    TMP DP  RH WIND       PRES   REMARKS
BLOOMINGTON    CLOUDY    55  48  77 SE9       30.17R
MADISON *+     MOCLDY    54  48  82 CALM      30.22R
NORTH VERNON + CLOUDY    54  50  87 CALM      30.20R

$$




USA.gov is the U.S. government's official web portal to all federal, state and local government web resources and services.